Regional Weather Roundup
Issued by NWS

Home | Current Version | Previous Version | Graphics & Text | Print | Product List | Glossary On
Versions: 1 2 3 4 5 6 7 8 9 10 11 12 13 14 15 16 17 18 19 20 21 22 23 24 25 26 27 28 29 30 31 32 33 34 35 36 37 38 39 40 41 42 43 44 45 46 47 48 49 50
000
ASUS45 KBOU 262207
RWRCO

WEATHER ROUNDUP FOR COLORADO
NATIONAL WEATHER SERVICE DENVER/BOULDER CO
400 PM MDT TUE AUG 26 2014

NOTE: "FAIR" INDICATES FEW OR NO CLOUDS BELOW 12000 FEET WITH NO
SIGNIFICANT WEATHER AND/OR OBSTRUCTIONS TO VISIBILITY.

COZ001>005-013-030-031-262300-
...NORTHWEST COLORADO...

CITY           SKY/WX    TMP DP  RH WIND       PRES   REMARKS
CRAIG          CLOUDY    68  48  48 SE13      30.27R
HAYDEN         CLOUDY    63  45  51 SE18      30.30S
MEEKER         CLOUDY    65  49  56 S7        30.28F
MOUNT WERNER   NOT AVBL
STEAMBOAT SPGS CLOUDY    54  51  90 NE15      30.36S
WALDEN         PTSUNNY   63  37  39 SW10      30.36S
$$

COZ006>008-011-262300-
...WEST CENTRAL VALLEYS...

CITY           SKY/WX    TMP DP  RH WIND       PRES   REMARKS
GRAND JUNCTION PTSUNNY   77  47  34 E6        30.14F
MONTROSE       PTSUNNY   71  50  47 N10       30.23F
EAGLE          PTSUNNY   72  43  35 SW7       30.27F
RIFLE          CLOUDY    65  53  65 NE5       30.23F
DELTA          RAIN      74  51  45 E8        30.19F
NUCLA          CLOUDY    73  43  33 S3        30.23F
$$

COZ017>023-064>068-262300-
...SOUTHWEST COLORADO...

CITY           SKY/WX    TMP DP  RH WIND       PRES   REMARKS
DURANGO        CLOUDY    72  42  34 CALM      30.26F
CORTEZ         CLOUDY    78  45  30 S17       30.19F
PAGOSA SPRINGS CLOUDY    66  44  43 NE3       30.34F
TELLURIDE      NOT AVBL
WOLF CREEK PAS CLOUDY    45  41  87 SW5       30.60F
$$

COZ009-010-012-014-032>034-037-058>063-262300-
...CENTRAL COLORADO...

CITY           SKY/WX    TMP DP  RH WIND       PRES   REMARKS
ASPEN          CLOUDY    64  44  48 E3        30.34F
BUENA VISTA    PTSUNNY   70  37  30 S6        30.32F
COPPER MTN     CLOUDY    59  34  38 S10       30.60F THUNDER
BERTHOUD PASS  CLOUDY    41  41 100 E5        30.66F
COTTONWOOD PAS CLOUDY    63  37  39 S5        30.46F
GUNNISON       CLOUDY    72  37  28 S9        30.31F
KREMMLING      CLOUDY    63  41  45 NW15      30.35R
LEADVILLE      CLOUDY    62  34  35 S8        30.42F
MONARCH PASS   CLOUDY    46  39  76 SW15      30.72S
SALIDA         NOT AVBL
SUNLIGHT       CLOUDY    50  43  76 SW5       30.54S
WILKERSON PASS NOT AVBL
$$

COZ069>075-262300-
...SAN LUIS VALLEY/SANGRE DE CRISTO MOUNTAINS...

CITY           SKY/WX    TMP DP  RH WIND       PRES   REMARKS
ALAMOSA        LGT RAIN  60  52  74 SE20      30.36R
LA VETA PASS   NOT AVBL
SAGUACHE       CLOUDY    70  41  35 SW8       30.32S
$$

COZ035-036-038>040-262300-
...NORTHERN COLORADO FRONT RANGE...

CITY           SKY/WX    TMP DP  RH WIND       PRES   REMARKS
DENVER INTL AP TSTM      63  57  81 SW16      30.21R
DMNS CITY PARK   N/A     62  59  90 NE2       30.19F
AURORA         PTSUNNY   69  57  64 N10       30.22F
FRONT RANGE AP TSTM      72  61  68 W23G32    30.21R
ERIE MUNI ARPT CLOUDY    72  56  57 S8        30.18F
BOULDER MUN AP CLOUDY    68  59  73 W7        30.18F
CENTENNIAL     CLOUDY    69  52  54 NW14      30.23S
BROOMFIELD     CLOUDY    68  57  68 S5        30.22F
FORT COLLINS   CLOUDY    66  57  72 W12       30.19S
LONGMONT       CLOUDY    71  59  65 NW9       30.19F HAZE
$$

COZ041-046-047-076>085-087-088-262300-
...PIKES PEAK/PALMER DIVIDE AND SOUTHERN FOOTHILLS...

CITY           SKY/WX    TMP DP  RH WIND       PRES   REMARKS
COLO. SPRINGS  CLOUDY    66  56  70 W9        30.26F
A. F. ACADEMY  CLOUDY    64  57  77 VRB3      30.27F
ELLICOTT       CLOUDY    72  54  53 VRB5      30.24F
FALCON         CLOUDY    65  54  67 W6        30.30F
FORT CARSON    PTSUNNY   70  57  64 N10       30.23F
LIMON          PTSUNNY   71  60  68 SE13      30.21S
MONUMENT HILL  CLOUDY    68  46  45 SW9       30.30R
TRINIDAD       CLOUDY    66  58  75 W10       30.24F
$$

COZ042>045-048>051-090-091-262300-
...NORTHEAST COLORADO...

CITY           SKY/WX    TMP DP  RH WIND       PRES   REMARKS
GREELEY ARPT   CLOUDY    79  57  47 SE5       30.16S
AKRON          MOSUNNY   77  61  57 S17G24    30.16S
BURLINGTON     PTSUNNY   82  60  47 SE13G22   30.12F
WRAY             N/A     82  61  49 S13G18    30.13F
STERLING       MOSUNNY   81  64  57 SE8       30.12R
HOLYOKE        PTSUNNY   79  64  61 SE7       30.14F
FORT MORGAN    MOSUNNY   76  58  53 SE6       30.15S
$$

COZ086-089-092>099-262300-
...SOUTHEAST COLORADO...

CITY           SKY/WX    TMP DP  RH WIND       PRES   REMARKS
PUEBLO         CLOUDY    78  56  46 S5        30.14F
LA JUNTA       CLOUDY    77  57  50 CALM      30.12F
LAMAR          PTSUNNY   89  59  36 NE10      30.05F
SPRINGFIELD      N/A     76  59  55 NE7       30.12F
$$


USA.gov is the U.S. government's official web portal to all federal, state and local government web resources and services.